FENGYUN 1C DEB, 31161

Orbit data source: Space-Track

FENGYUN 1C DEB, 31161 is space debris in SSO originally from a launch on Mon, 10 May 1999 UTC launched from the Taiyaun Space Center, China (TSC). Fengyun 1C debris stems from the Chinese weather satellite Fengyun-1C, which was intentionally destroyed by a Chinese anti-satellite missile in 2007. This event dramatically increased the amount of space debris, with thousands of trackable fragments posing hazards to satellites and human spaceflight. The Fengyun 1C debris cloud has become a focal point in discussions about space sustainability and the need for international regulations to prevent the creation of new debris.

Loading next visibility...
Identifier
31161, 1999-025BHP
Orbit
SSO
Country
Flag of CNCN / PRC
Related business
Manufacturer
Unknown
Mission
Spacecraft
Bus & Motor
Unknown
Mass
Unknown
Launch date (UTC)
1999-05-10 (27 years ago)
Launch vehicle
Unknown
Launch site
Taiyaun Space Center, China (TSC)
Object type
Payload
Rocket body
Debris
Shape & HBR
Unknown shape, 0.1 m
Radar Cross Section
Small (<0.1 m²)

Expand to show TLE details & history
Last TLE update: 2 days ago

TLE from 2 days ago
0 FENGYUN 1C DEB
1 31161U 99025BHP 26163.34405218  .00000560  00000-0  33747-3 0  9990
2 31161  98.7326 184.6168 0068179 194.5415 165.3796 14.09460718986609
Epoch: 2026-06-12T08:15Z
TLE epoch observation values (Epoch: 2026-06-12T08:15:26.108Z)
Latitude
0.00007°
Longitude
160.08316°
Altitude
911.907 km
Speed
7.372 km/s
True Right ascension
12h 18m 28s
True Declination
0° 00' 00"
Sunlit
Object was in daylight at epoch
Visualization orbit readout
Latitude
Unknown
Longitude
Unknown
Altitude
Unknown
Speed
Unknown
Apparent Right ascension
Unknown
Apparent Declination
Unknown
Sunlit
N/A
Visualization observer readout
Local Sidereal Time
14:17:21
Azimuth
Unknown
Elevation
Unknown
Doppler factor
Unknown
Orbital elements
Apogee altitude
907.729 km
Perigee altitude
809.053 km
Semi-major axis
7,236.528 km
Eccentricity
0.00682
Inclination
98.7326°
RAAN
184.6168°
Arg. of periapsis
194.5415°
True anomaly
165.57519°
Mean anomaly
165.3796°
Eccentric anomaly
165.47756°
Mean motion
3.52572 °/min
Orbital period
102.11 mins
BSTAR
0.00033747
Loading maneuver chart data...
Computing Atmospheric mass density...
Loading historical data...
Loading historical data...
Loading historical data...
Loading historical data...
Loading historical data...
Loading historical data...
Loading historical data...

Documentation

Showing up to 5 results
|